| time (UTC) | temp C | wind direction | speed KPH | gust KPH | rain 1hr cm | rain 24hr cm | rain mn cm | humidity % | barometer mb |
| 20260902230033 | 35 | 146 | 3.2 | 0.0 | 0.00 | 0.00 | 0.00 | 41 | 1007.3 |
| 20260902224532 | 35 | 103 | 3.2 | 0.0 | 0.00 | 0.00 | 0.00 | 41 | 1007.2 |
| 20260902223031 | 34 | 171 | 6.4 | 0.0 | 0.00 | 0.00 | 0.00 | 43 | 1007.3 |
| 20260902221529 | 33 | 174 | 6.4 | 0.0 | 0.00 | 0.00 | 0.00 | 43 | 1007.7 |
| 20260902220041 | 33 | 156 | 8.0 | 0.0 | 0.00 | 0.00 | 0.00 | 43 | 1007.9 |
| 20260902214546 | 33 | 190 | 4.8 | 0.0 | 0.00 | 0.00 | 0.00 | 43 | 1007.9 |
| 20260902213028 | 33 | 212 | 9.7 | 0.0 | 0.00 | 0.00 | 0.00 | 42 | 1007.8 |
| 20260902211526 | 33 | 207 | 1.6 | 0.0 | 0.00 | 0.00 | 0.00 | 44 | 1007.8 |
| 20260902210028 | 33 | 155 | 4.8 | 0.0 | 0.00 | 0.00 | 0.00 | 42 | 1008.1 |
| 20260902204524 | 34 | 168 | 4.8 | 0.0 | 0.00 | 0.00 | 0.00 | 42 | 1008.2 |
| 20260902203023 | 34 | 127 | 8.0 | 0.0 | 0.00 | 0.00 | 0.00 | 40 | 1008.5 |
| 20260902201531 | 35 | 136 | 3.2 | 0.0 | 0.00 | 0.00 | 0.00 | 39 | 1008.6 |
| 20260902194502 | 35 | 155 | 6.4 | 0.0 | 0.00 | 0.00 | 0.00 | 40 | 1008.8 |
| 20260902193105 | 35 | 64 | 6.4 | 0.0 | 0.00 | 0.00 | 0.00 | 40 | 1009.1 |
| 20260902191602 | 35 | 254 | 6.4 | 0.0 | 0.00 | 0.00 | 0.00 | 41 | 1009.3 |
| 20260902184607 | 34 | 281 | 4.8 | 0.0 | 0.00 | 0.00 | 0.00 | 42 | 1010.0 |
| 20260902181604 | 33 | 152 | 8.0 | 0.0 | 0.00 | 0.00 | 0.00 | 44 | 1010.4 |
| 20260902174504 | 33 | 197 | 8.0 | 0.0 | 0.00 | 0.00 | 0.00 | 46 | 1010.9 |
| 20260902173015 | 33 | 196 | 6.4 | 0.0 | 0.00 | 0.00 | 0.00 | 48 | 1011.1 |
| 20260902170107 | 32 | 181 | 8.0 | 0.0 | 0.00 | 0.00 | 0.00 | 51 | 1011.5 |
| 20260902164503 | 31 | 259 | 9.7 | 0.0 | 0.00 | 0.00 | 0.00 | 52 | 1011.7 |
| 20260902163004 | 31 | 182 | 8.0 | 0.0 | 0.00 | 0.00 | 0.00 | 50 | 1011.6 |
| 20260902154512 | 30 | 177 | 6.4 | 0.0 | 0.00 | 0.00 | 0.00 | 59 | 1011.7 |
| 20260902153004 | 29 | 229 | 9.7 | 0.0 | 0.00 | 0.00 | 0.00 | 62 | 1011.7 |
| 20260902151604 | 28 | 225 | 8.0 | 0.0 | 0.00 | 0.00 | 0.00 | 63 | 1011.7 |
| 20260902144504 | 27 | 207 | 11.3 | 0.0 | 0.00 | 0.00 | 0.00 | 67 | 1011.9 |
| 20260902143106 | 27 | 257 | 6.4 | 0.0 | 0.00 | 0.00 | 0.00 | 71 | 1011.9 |
| 20260902141502 | 26 | 226 | 6.4 | 0.0 | 0.00 | 0.00 | 0.00 | 75 | 1011.7 |
| 20260902140011 | 25 | 246 | 4.8 | 0.0 | 0.00 | 0.00 | 0.00 | 80 | 1011.9 |
| 20260902133004 | 24 | 241 | 4.8 | 0.0 | 0.00 | 0.00 | 0.00 | 85 | 1012.0 |
| 20260902131628 | 23 | 211 | 4.8 | 0.0 | 0.00 | 0.00 | 0.00 | 86 | 1011.9 |
| 20260902130003 | 22 | 207 | 3.2 | 0.0 | 0.00 | 0.00 | 0.00 | 86 | 1011.7 |
| 20260902124504 | 22 | 203 | 4.8 | 0.0 | 0.00 | 0.00 | 0.00 | 86 | 1011.7 |
| 20260902123154 | 22 | 228 | 3.2 | 0.0 | 0.00 | 0.00 | 0.00 | 86 | 1011.4 |
| 20260902121504 | 22 | 245 | 1.6 | 0.0 | 0.00 | 0.00 | 0.00 | 85 | 1011.4 |
| 20260902120002 | 22 | 210 | 1.6 | 0.0 | 0.00 | 0.00 | 0.00 | 84 | 1011.0 |
| 20260902114603 | 22 | 215 | 1.6 | 0.0 | 0.00 | 0.00 | 0.00 | 83 | 1011.0 |
| 20260902113006 | 22 | 225 | 4.8 | 0.0 | 0.00 | 0.00 | 0.00 | 82 | 1010.9 |
| 20260902111504 | 22 | 229 | 4.8 | 0.0 | 0.00 | 0.00 | 0.00 | 80 | 1010.9 |
| 20260902110004 | 22 | 205 | 4.8 | 0.0 | 0.00 | 0.00 | 0.00 | 80 | 1010.8 |
| 20260902104605 | 22 | 209 | 3.2 | 0.0 | 0.00 | 0.00 | 0.00 | 80 | 1010.8 |
| 20260902103102 | 22 | 198 | 3.2 | 0.0 | 0.00 | 0.00 | 0.00 | 81 | 1010.8 |
| 20260902101509 | 23 | 227 | 1.6 | 0.0 | 0.00 | 0.00 | 0.00 | 80 | 1010.8 |
| 20260902100104 | 23 | 209 | 3.2 | 0.0 | 0.00 | 0.00 | 0.00 | 80 | 1010.8 |
| 20260902094505 | 23 | 207 | 3.2 | 0.0 | 0.00 | 0.00 | 0.00 | 79 | 1010.7 |
| 20260902093136 | 23 | 215 | 3.2 | 0.0 | 0.00 | 0.00 | 0.00 | 79 | 1010.7 |
| 20260902091614 | 23 | 257 | 1.6 | 0.0 | 0.00 | 0.00 | 0.00 | 77 | 1010.8 |
| 20260902090005 | 23 | 245 | 0.0 | 0.0 | 0.00 | 0.00 | 0.00 | 76 | 1011.0 |
| 20260902084604 | 23 | 239 | 3.2 | 0.0 | 0.00 | 0.00 | 0.00 | 75 | 1011.0 |
| 20260902083006 | 23 | 157 | 4.8 | 0.0 | 0.00 | 0.00 | 0.00 | 74 | 1011.0 |
| 20260902081506 | 24 | 168 | 4.8 | 0.0 | 0.00 | 0.00 | 0.00 | 73 | 1011.1 |
| 20260902080007 | 24 | 190 | 4.8 | 0.0 | 0.00 | 0.00 | 0.00 | 71 | 1010.9 |
| 20260902074502 | 25 | 150 | 4.8 | 0.0 | 0.00 | 0.00 | 0.00 | 69 | 1011.0 |
| 20260902073006 | 25 | 147 | 4.8 | 0.0 | 0.00 | 0.00 | 0.00 | 69 | 1010.9 |
| 20260902071506 | 25 | 191 | 3.2 | 0.0 | 0.00 | 0.00 | 0.00 | 68 | 1010.9 |
| 20260902070104 | 25 | 167 | 3.2 | 0.0 | 0.00 | 0.00 | 0.00 | 68 | 1010.9 |
| 20260902064507 | 25 | 165 | 4.8 | 0.0 | 0.00 | 0.00 | 0.00 | 68 | 1010.8 |
| 20260902063108 | 25 | 169 | 4.8 | 0.0 | 0.00 | 0.00 | 0.00 | 68 | 1010.9 |
| 20260902060007 | 26 | 156 | 4.8 | 0.0 | 0.00 | 0.00 | 0.00 | 67 | 1010.8 |
| 20260902054507 | 26 | 150 | 4.8 | 0.0 | 0.00 | 0.00 | 0.00 | 67 | 1010.9 |
| 20260902053102 | 26 | 139 | 3.2 | 0.0 | 0.00 | 0.00 | 0.00 | 67 | 1010.8 |
| 20260902050008 | 26 | 150 | 4.8 | 0.0 | 0.00 | 0.00 | 0.00 | 65 | 1010.6 |
| 20260902043009 | 27 | 132 | 4.8 | 0.0 | 0.00 | 0.00 | 0.00 | 63 | 1010.5 |
| 20260902040008 | 27 | 89 | 4.8 | 0.0 | 0.00 | 0.00 | 0.00 | 61 | 1010.6 |
| 20260902034505 | 28 | 105 | 3.2 | 0.0 | 0.00 | 0.00 | 0.00 | 59 | 1010.5 |
| 20260902033006 | 28 | 109 | 3.2 | 0.0 | 0.00 | 0.00 | 0.00 | 58 | 1010.4 |
| 20260902031502 | 28 | 90 | 1.6 | 0.0 | 0.00 | 0.00 | 0.00 | 57 | 1010.3 |
| 20260902030105 | 28 | 128 | 1.6 | 0.0 | 0.00 | 0.00 | 0.00 | 55 | 1010.1 |
| 20260902024602 | 28 | 115 | 1.6 | 0.0 | 0.00 | 0.00 | 0.00 | 54 | 1010.2 |
| 20260902023006 | 28 | 116 | 0.0 | 0.0 | 0.00 | 0.00 | 0.00 | 53 | 1009.9 |
| 20260902021634 | 28 | 146 | 0.0 | 0.0 | 0.00 | 0.00 | 0.00 | 53 | 1009.7 |
| 20260902014616 | 28 | 121 | 0.0 | 0.0 | 0.00 | 0.00 | 0.00 | 53 | 1009.4 |
| 20260902013104 | 28 | 121 | 0.0 | 0.0 | 0.00 | 0.00 | 0.00 | 53 | 1009.3 |
| 20260902010003 | 30 | 121 | 0.0 | 0.0 | 0.00 | 0.00 | 0.00 | 49 | 1009.3 |
| 20260902004505 | 31 | 120 | 0.0 | 0.0 | 0.00 | 0.00 | 0.00 | 48 | 1009.2 |
| 20260902003007 | 32 | 120 | 1.6 | 0.0 | 0.00 | 0.00 | 0.00 | 45 | 1009.2 |
| 20260902001604 | 32 | 113 | 1.6 | 0.0 | 0.00 | 0.00 | 0.00 | 44 | 1009.1 |
| 20260902000105 | 32 | 128 | 1.6 | 0.0 | 0.00 | 0.00 | 0.00 | 43 | 1009.0 |
| 20260901234609 | 33 | 126 | 4.8 | 0.0 | 0.00 | 0.00 | 0.00 | 43 | 1009.1 |
| 20260901233007 | 33 | 151 | 3.2 | 0.0 | 0.00 | 0.00 | 0.00 | 41 | 1008.9 |
| 20260901231506 | 34 | 119 | 3.2 | 0.0 | 0.00 | 0.00 | 0.00 | 40 | 1008.8 |